{"data":{"norad_id":53727,"intl_designator":"2022-107AD","name":"STARLINK-4701","alt_names":[],"object_type":"PAYLOAD","status":"ACTIVE","operator":null,"country":"US","launch_date":"2022-09-05","launch_site_code":"AFETR","launch_vehicle":null,"mission":null,"orbit_class":"UNKNOWN","rcs_meters":null,"size_class":null,"mass_kg":null,"dimensions":null,"purposes":["comms"],"wikipedia_slug":null,"has_3d_model":false,"image_url":null,"decayed_at":null,"tle_current":{"epoch":"2026-05-25T01:32:26.032416Z","epoch_age_seconds":83704,"freshness":"FRESH","line1":"1 53727U 22107AD  26145.06419019  .00000326  00000+0  38550-4 0  9999","line2":"2 53727  53.2145 271.2538 0001237  92.9582 267.1551 15.08833538206089","mean_motion":15.08833538,"eccentricity":0.0001237,"inclination_deg":53.2145,"raan_deg":271.2538,"arg_perigee_deg":92.9582,"mean_anomaly_deg":267.1551,"bstar":3.855e-5,"rev_number":20608,"period_min":95.437963415683,"perigee_km":538.90739653602,"apogee_km":540.61888503085,"semimajor_km":6917.9001407834,"source":"CELESTRAK","updated_at":"2026-05-25T13:38:17.536389Z"}}}